Regional Weather Roundup
Issued by NWS

Home | Current Version | Previous Version | Graphics & Text | Print | Product List | Glossary On
Versions: 1 2 3 4 5 6 7 8 9 10 11 12 13 14 15 16 17 18 19 20 21 22 23 24 25 26 27 28 29 30 31 32 33 34 35 36 37 38 39 40 41 42 43 44 45 46 47 48 49 50
000
ASUS43 KMKX 280400
RWRWI

WISCONSIN REGIONAL WEATHER ROUNDUP
NATIONAL WEATHER SERVICE MILWAUKEE/SULLIVAN WI
1000 PM CST SAT DEC 27 2014

NOTE: "FAIR" INDICATES FEW OR NO CLOUDS BELOW 12,000 FEET WITH NO
SIGNIFICANT WEATHER AND/OR OBSTRUCTIONS TO VISIBILITY.

WIZ001-002-006>008-014>016-023>028-280500-
NORTHWEST WISCONSIN

CITY           SKY/WX    TMP DP  RH WIND       PRES   REMARKS
SUPERIOR ARPT  PTCLDY    22  10  59 W5        30.03S WCI  16
ASHLAND        CLOUDY    19  10  68 SW9       30.02R WCI   8
HAYWARD        CLOUDY    18  11  74 SW8       30.03R WCI   8
SIREN          CLEAR     15   9  75 W8        30.07S WCI   5
CUMBERLAND     CLOUDY    16   9  73 W9        30.05R WCI   4
RICE LAKE      CLOUDY    16  11  82 W8        30.08R WCI   5
CHETEK         CLEAR     12  10  90 CALM      30.07R
LADYSMITH      CLEAR     11   9  90 S5        30.05S WCI   3
EAU CLAIRE     NOT AVBL
MENOMONIE      CLEAR     14   6  72 SW9       30.11R WCI   2
NEW RICHMOND   CLOUDY    12   8  82 SW7       30.10S WCI   1
OSCEOLA        PTCLDY    13   8  79 SW7       30.13S WCI   2
$$

WIZ003>005-009-010-017-018-280500-
NORTH CENTRAL WISCONSIN

CITY           SKY/WX    TMP DP  RH WIND       PRES   REMARKS
MANITOWISH WTR MOCLDY     9   9  97 SW3       29.97S
ARBOR VITAE    PTCLDY    14  12  90 SW3       29.98R
WOODRUFF       PTCLDY    14  12  90 SW3       29.98R
RHINELANDER    CLEAR     10   8  92 W5        29.99S WCI   2
EAGLE RIVER    CLEAR     13   9  84 W7        29.96S WCI   3
LAND O LAKES   CLEAR     17  14  90 W6        29.96S WCI   8
PHILLIPS       PTCLDY    11  10  92 SW3       30.00R
TOMAHAWK       CLEAR     13  10  90 CALM      30.01S
MEDFORD        CLEAR     12  10  93 SW5       30.02S WCI   4
MERRILL        CLEAR     15  13  93 W3        30.03S
$$

WIZ029-030-035-036-043>047-280500-
CENTRAL WISCONSIN

CITY           SKY/WX    TMP DP  RH WIND       PRES   REMARKS
WAUSAU         CLEAR     17  14  88 W6        30.04R WCI   9
MOSINEE        CLEAR     16  16 100 W7        30.06S WCI   6
MARSHFIELD     CLEAR     16  13  88 W8        30.05S WCI   5
STEVENS POINT  CLEAR     19  16  86 W6        30.07S WCI  11
WAUPACA        PTCLDY    26  18  72 W8G17     30.08R WCI  17
WAUTOMA        PTCLDY    25  19  80 W9        30.09R WCI  15
WISC RAPIDS    CLEAR     21  16  81 W8        30.10R WCI  11
CAMP DOUGLAS   NOT AVBL
$$

WIZ011>013-019>022-031-037>040-048>050-280500-
NORTHEAST WISCONSIN

CITY           SKY/WX    TMP DP  RH WIND       PRES   REMARKS
ANTIGO         PTCLDY    17  14  90 W9        30.01R WCI   5
SHAWANO        MOCLDY    28  21  74 W7        30.05R WCI  21
OCONTO         MOCLDY    29  22  75 NW6       30.02S WCI  23
STURGEON BAY   MOCLDY    30  23  74 W14G20    30.02S WCI  20
GREEN BAY      CLEAR     30  22  72 W10       30.04R WCI  21
MANITOWOC      NOT AVBL
APPLETON       PTCLDY    27  19  74 W10       30.05R WCI  17
CLINTONVILLE   MOCLDY    27  19  74 W12       30.06R WCI  16
OSHKOSH        MOCLDY    27  20  75 W9        30.07R WCI  18
$$

WIZ032>034-041-042-053>061-280500-
SOUTHWEST WISCONSIN

CITY           SKY/WX    TMP DP  RH WIND       PRES   REMARKS
LA CROSSE      CLEAR     18  11  74 SW6       30.17R WCI  10
SPARTA         CLEAR     21  17  84 W8        30.13R WCI  11
VIROQUA        CLEAR     19  19 100 W9        30.11R WCI   7
BOSCOBEL       PTCLDY    22  16  78 W6        30.17R WCI  14
PRAIRIE DU CHI CLEAR     21  14  74 W8        30.18S WCI  11
PLATTEVILLE    PTCLDY    22  19  85 W9        30.15R WCI  12
$$

WIZ056-057-062-063-064-067-068-280500-
SOUTH CENTRAL WISCONSIN

CITY           SKY/WX    TMP DP  RH WIND       PRES   REMARKS
REEDSBURG      MOCLDY    23  18  81 W8        30.11R WCI  14
BARABOO/DELLS  PTCLDY    24  19  80 W5        30.10R WCI  18
LONE ROCK      NOT AVBL
MINERAL POINT  CLOUDY    27  21  80 W13       30.11S WCI  16
MADISON        MOCLDY    27  19  72 NW9       30.11R WCI  18
MIDDLETON      CLOUDY    29  22  74 W12       30.10R WCI  20
WATERTOWN      CLOUDY    29  22  75 NW8       30.09R WCI  21
MONROE         CLOUDY    27  25  93 W12G18    30.11R WCI  16
JANESVILLE     CLOUDY    32  27  80 W12       30.10S WCI  23
$$

WIZ051-052-058>065-066-070>072-280500-
SOUTHEAST WISCONSIN

CITY           SKY/WX    TMP DP  RH WIND       PRES   REMARKS
MILWAUKEE      CLOUDY    33  24  69 W13       30.08R WCI  24
WAUKESHA       CLOUDY    30  23  74 W10       30.09R WCI  21
MILWAUKEE/TIMM CLOUDY    30  23  74 NW14      30.09R WCI  20
RACINE         CLOUDY    33  25  72 W8        30.10R WCI  26
BURLINGTON     CLOUDY    30  24  77 W9        30.10R WCI  21
KENOSHA        CLOUDY    32  26  78 W10       30.09R WCI  24
FOND DU LAC    CLOUDY    29  20  69 W14       30.07S WCI  18
SHEBOYGAN      CLOUDY    29  22  75 W14       30.06R WCI  18
WEST BEND      CLOUDY    30  23  74 W14G20    30.07R WCI  20
JUNEAU         MOCLDY    28  20  74 W7        30.09R WCI  20
$$

LSZ147-162-280500-
LAKE SUPERIOR

STATION/POSITION TIME  TEMP    WIND        PRES    WAVE
                       AIR SEA DIR/SP/G            HT/PER
                 (UTC) (F)     (DEG/KT/KT) (MB)    (FT/S)
DEVILS ISLAND    0300   26     280/ 23/ 26 1016.3R
PORT WING        0300   24     210/  7/ 10 1016.6
SAXON HARBOR     0340   21     190/  6/  9 1016.3S
$$

LMZ867-665-643>646-280500-
LAKE MICHIGAN

STATION/POSITION TIME  TEMP    WIND        PRES    WAVE
                       AIR SEA DIR/SP/G            HT/PER
                 (UTC) (F)     (DEG/KT/KT) (MB)    (FT/S)
CHAMBERS ISLAND  0300   32     250/  5/ 13 1015.9R
NORTHPORT PIER   0300   33     290/  6/ 11 1015.2R
SISTER BAY       0313          320/ 11/ 13   N/A
ALGOMA LAKESHORE 0245          300/  6/ 12   N/A
KEWAUNEE LAKESHO 0306   32     280/  8/ 12 1015.4R
SHEBOYGAN LAKESH 0300   32 38  280/ 14/ 16 1018.0R
PORT WASHINGTON  0300   33     290/  6/ 16 1019.0R
MILWAUKEE LAKESH 0300   33     290/ 12/ 15   N/A
KENOSHA   LAKESH 0300   34     280/ 10/ 15 1018.6R
$$

TC  - TEMPERATURE IN CELSIUS
VSB - VISIBILITY IN STATUTE MILES
WCI - WIND CHILL INDEX
HX  - HEAT INDEX




USA.gov is the U.S. government's official web portal to all federal, state and local government web resources and services.